Flag for U.S.A. Weather past 2 weeks in Decatur, Illinois, U.S.A.

Now
22 °F

Light snow. Ice fog.


Feels Like: 16 °F
Forecast: 22 / 29 °F
Wind: 5 mph from East

Location: Decatur Airport

Current Time: Mar 1, 2015 at 12:53:09 AM

Latest Report: Feb 28, 2015 at 11:54 PM


Visibility: 1 mi

Pressure: 30.45 "Hg

Humidity: 92%

Dew point: 20 °F

Location of DecaturLocation

Historic Weather in Decatur — Graph

°F

Decatur temperature yesterday

Maximum temperature yesterday: 25 °F (at 1:54 PM)
Minimum temperature yesterday: 2 °F (at 12:54 AM)
Average temperature yesterday: 16 °F

Past Weeks' High & Low Weather Summary

 TemperatureHumidityPressure
High32 °F (Feb 14, 4:54 AM)92% (Feb 21, 12:54 AM)30.79 "Hg (Feb 21, 12:54 AM)
Low-5 °F (Feb 24, 12:54 AM)30% (Feb 14, 11:54 AM)29.89 "Hg (Feb 24, 3:54 PM)
Average15 °F66%30.29 "Hg
* Reported Feb 13 11:54 PM — Feb 28 11:54 PM, Decatur, Weather by CustomWeather, © 2015

Note: Actual official high and low records may vary slightly from our data, if they occured in-between our weather recording intervals... More about our weather records

Advertising

Decatur weather history for previous 24 hours

 ConditionsComfort  
Time TempWeatherWind HumidityBarometerVisibility
11:54 PM
Sat, Feb 28
22 °FLight snow. Ice fog.5 mph92%30.45 "Hg1 mi
10:54 PM22 °FSnow. Ice fog.6 mph92%30.48 "Hg1 mi
9:54 PM22 °FLight snow. Ice fog.7 mph89%30.49 "Hg1 mi
8:54 PM22 °FLight snow. Ice fog.7 mph89%30.51 "Hg1 mi
7:54 PM21 °FLight snow. Ice fog.6 mph92%30.53 "Hg1 mi
6:54 PM21 °FLight snow. Ice fog.7 mph88%30.54 "Hg1 mi
5:54 PM21 °FLight snow. Ice fog.8 mph88%30.54 "Hg1 mi
4:54 PM22 °FLight snow. Overcast.10 mph82%30.54 "Hg1 mi
3:54 PM24 °FLight snow. Mostly cloudy.8 mph65%30.56 "Hg5 mi
2:54 PM25 °FMostly cloudy.10 mph58%30.58 "Hg10 mi
1:54 PM25 °FPassing clouds.10 mph53%30.58 "Hg10 mi
12:54 PM23 °FPartly sunny.12 mph55%30.63 "Hg10 mi
11:54 AM21 °FSunny.10 mph62%30.66 "Hg10 mi
10:54 AM18 °FSunny.9 mph65%30.70 "Hg10 mi
9:54 AM16 °FOvercast.10 mph65%30.71 "Hg10 mi
8:54 AM13 °FOvercast.8 mph70%30.72 "Hg10 mi
7:54 AM11 °FCloudy.8 mph70%30.72 "Hg10 mi
6:54 AM10 °FOvercast.7 mph69%30.72 "Hg10 mi
5:54 AM8 °FOvercast.7 mph76%30.72 "Hg10 mi
4:54 AM8 °FOvercast.5 mph72%30.71 "Hg10 mi
3:54 AM8 °FOvercast.6 mph69%30.69 "Hg10 mi
2:54 AM4 °FPassing clouds.3 mph73%30.70 "Hg10 mi
1:54 AM2 °FClear.3 mph80%30.71 "Hg10 mi
12:54 AM2 °FPassing clouds.5 mph80%30.71 "Hg10 mi
Weather by CustomWeather, © 2015

See weather overviewHow to use our weather pages